Flag for Ireland Weather past 2 weeks in Dublin, Ireland

Now
61 °F

Partly sunny.


Feels Like: 61 °F
Forecast: 47 / 66 °F
Wind: 8 mph from Northwest

Location: Dublin Airport

Current Time: Sep 1, 2014 at 4:41:23 PM

Latest Report: Sep 1, 2014 at 4:00 PM


Visibility: N/A

Pressure: 30.18 "Hg

Humidity: 63%

Dew point: 48 °F

Location of DublinLocation

Historic Weather in Dublin — Graph

°F

Dublin temperature yesterday

Maximum temperature yesterday: 68 °F (at 4:30 PM)
Minimum temperature yesterday: 48 °F (at 5:00 AM)
Average temperature yesterday: 58 °F

Past Weeks' High & Low Weather Summary

 TemperatureHumidityPressure
High68 °F (Aug 31, 4:30 PM)100% (Aug 19, 6:30 AM)30.18 "Hg (Aug 19, 6:30 AM)
Low37 °F (Aug 24, 3:00 AM)48% (Aug 18, 2:30 PM)29.47 "Hg (Aug 25, 6:30 PM)
Average55 °F82%29.88 "Hg
* Reported Aug 17 3:00 PM — Sep 1 3:30 PM, Dublin, Weather by CustomWeather, © 2014

Note: Actual official high and low records may vary slightly from our data, if they occured in-between our weather recording intervals... More about our weather records

Advertising

Dublin weather history for previous 24 hours

 ConditionsComfort  
Time TempWeatherWind HumidityBarometerVisibility
3:30 PM
Sep 1
61 °FPartly sunny.8 mph59%30.18 "HgN/A
3:00 PM61 °FPartly sunny.8 mph63%30.18 "HgN/A
2:30 PM61 °FPartly sunny.8 mph59%30.18 "HgN/A
2:00 PM61 °FPartly sunny.7 mph59%30.18 "HgN/A
1:30 PM59 °FPartly sunny.9 mph63%30.18 "HgN/A
1:00 PM61 °FPartly sunny.8 mph55%30.18 "HgN/A
12:30 PM61 °FPartly sunny.10 mph55%30.18 "HgN/A
12:00 PM61 °FPartly sunny.12 mph59%30.18 "HgN/A
11:30 AM59 °FPartly sunny.13 mph59%30.18 "HgN/A
11:00 AM59 °FPartly sunny.10 mph72%30.15 "HgN/A
10:30 AM59 °FPartly sunny.9 mph77%30.15 "HgN/A
10:00 AM57 °FPartly sunny.8 mph88%30.15 "HgN/A
9:30 AM57 °FPartly sunny.8 mph88%30.15 "HgN/A
9:00 AM57 °FPartly sunny.7 mph88%30.15 "HgN/A
8:30 AM55 °FPartly sunny.7 mph94%30.12 "HgN/A
8:00 AM55 °FPartly sunny.6 mph94%30.12 "HgN/A
7:30 AM55 °FPassing clouds.6 mph94%30.12 "HgN/A
7:00 AM55 °FPassing clouds.7 mph94%30.12 "HgN/A
6:30 AM55 °FPassing clouds.7 mph94%30.09 "HgN/A
6:00 AM55 °FPassing clouds.8 mph94%30.09 "HgN/A
5:30 AM55 °FPassing clouds.7 mph94%30.09 "HgN/A
5:00 AM55 °FPassing clouds.7 mph94%30.09 "HgN/A
4:30 AM55 °FPartly cloudy.8 mph94%30.07 "HgN/A
4:00 AM55 °FPassing clouds.9 mph94%30.07 "HgN/A
3:30 AM55 °FPassing clouds.9 mph94%30.07 "HgN/A
3:00 AM55 °FPassing clouds.9 mph94%30.07 "HgN/A
2:30 AM55 °FPassing clouds.8 mph94%30.07 "HgN/A
2:00 AM55 °FPassing clouds.7 mph94%30.07 "HgN/A
1:30 AM55 °FPartly cloudy.7 mph94%30.07 "HgN/A
1:00 AM57 °FPartly cloudy.8 mph94%30.04 "HgN/A
12:30 AM57 °FPartly cloudy.12 mph94%30.04 "HgN/A
12:00 AM59 °FLight rain. Partly cloudy.13 mph94%30.04 "Hg6 mi
11:30 PM
Aug 31
61 °FPartly cloudy.15 mph100%30.01 "Hg3 mi
11:00 PM63 °FPartly cloudy.17 mph94%30.01 "HgN/A
10:30 PM63 °FPartly cloudy.17 mph88%30.01 "HgN/A
10:00 PM63 °FPartly cloudy.13 mph88%30.01 "HgN/A
9:30 PM64 °FPartly cloudy.14 mph83%30.01 "HgN/A
9:00 PM64 °FBroken clouds.13 mph83%30.01 "HgN/A
8:30 PM64 °FBroken clouds.13 mph83%29.98 "HgN/A
8:00 PM64 °FPartly sunny.15 mph83%29.98 "HgN/A
7:30 PM64 °FBroken clouds.13 mph83%29.98 "HgN/A
7:00 PM64 °FBroken clouds.15 mph83%29.98 "HgN/A
6:30 PM66 °FPartly sunny.14 mph73%29.98 "HgN/A
6:00 PM68 °FPartly sunny.13 mph69%29.98 "HgN/A
5:30 PM68 °FPartly sunny.10 mph64%29.98 "HgN/A
5:00 PM66 °FPartly sunny.12 mph68%30.01 "HgN/A
4:30 PM68 °FPartly sunny.8 mph60%30.01 "HgN/A
4:00 PM66 °FPartly sunny.7 mph68%30.01 "HgN/A
Weather by CustomWeather, © 2014

See weather overviewHow to use our weather pages